Overview Statistics Trail Chart Weather Telemetry Raw packets
 

This is the latest recevied weather packets stored in our database for station/object SV9TNF-51. If no packets are shown the sender has not sent any weather packets the latest 10 day(s).

<< 80 81 82 83 84 85 86 >>
Time Temp. Humidity Pressure Rain* Wind** Luminosity Snow
1788080835 35.56° C 37% 1013.6 hPa 0 mm 1.34 m/s, 122° - -
1788080535 34.44° C 34% 1013.6 hPa 0 mm 2.68 m/s, 122° - -
1788080235 34.44° C 37% 1013.6 hPa 0 mm 4.47 m/s, 112° - -
1788079935 35° C 37% 1013.6 hPa 0 mm 1.34 m/s, 128° - -
1788079635 34.44° C 38% 1013.6 hPa 0 mm 2.24 m/s, 128° - -
1788079335 33.33° C 40% 1013.6 hPa 0 mm 3.13 m/s, 126° - -
1788079035 33.89° C 39% 1013.6 hPa 0 mm 3.58 m/s, 47° - -
1788078735 34.44° C 34% 1013.6 hPa 0 mm 0 m/s - -
1788078435 32.78° C 41% 1013.6 hPa 0 mm 2.68 m/s, 112° - -
1788078135 32.78° C 40% 1013.6 hPa 0 mm 3.13 m/s, 290° - -
1788077834 33.89° C 37% 1013.6 hPa 0 mm 1.79 m/s, 106° - -
1788077534 33.33° C 37% 1013.2 hPa 0 mm 2.24 m/s, 112° - -
1788077234 32.78° C 38% 1013.2 hPa 0 mm 1.79 m/s, 28° - -
1788076934 32.78° C 38% 1013.2 hPa 0 mm 7.15 m/s, 79° - -
1788076634 32.22° C 39% 1013.6 hPa 0 mm 4.02 m/s, 99° - -
1788076334 32.78° C 36% 1013.6 hPa 0 mm 4.92 m/s, 81° - -
1788076033 32.22° C 33% 1013.2 hPa 0 mm 2.24 m/s, 118° - -
1788075734 31.67° C 33% 1013.2 hPa 0 mm 2.24 m/s, 125° - -
1788075434 31.67° C 34% 1013.2 hPa 0 mm 5.81 m/s, 104° - -
1788075133 31.67° C 33% 1013.2 hPa 0 mm 2.68 m/s, 128° - -
1788074833 31.67° C 34% 1013.2 hPa 0 mm 3.13 m/s, 124° - -
1788074533 31.11° C 34% 1013.2 hPa 0 mm 2.68 m/s, 130° - -
1788074233 31.67° C 34% 1013.2 hPa 0 mm 2.68 m/s, 156° - -
1788073933 30.56° C 37% 1013.2 hPa 0 mm 2.68 m/s, 116° - -
1788073633 30.56° C 37% 1013.2 hPa 0 mm 4.02 m/s, 120° - -

* Rain latest hour (hover to see other rain measurements)
** Current wind speed in m/s (hover to see current wind gust speed)